Weather History for Watertown, NY

Change the Weather History Date:

Saturday, April 12, 2014

  Actual Average Record
Temperature  
Mean Temperature 44 °F 42 °F  
Max Temperature 58 °F 53 °F 73 °F (2006)
Min Temperature 30 °F 32 °F 17 °F (1975)
Degree Days  
Heating Degree Days 21 22  
Month to date heating degree days 298 299  
Since 1 July heating degree days 7274 6806  
Cooling Degree Days 0 0  
Month to date cooling degree days 0 0  
Year to date cooling degree days 0 0  
Moisture  
Dew Point 33 °F    
Average Humidity 62    
Maximum Humidity 85    
Minimum Humidity 39    
Precipitation  
Precipitation 0.00 in 0.10 in 1.10 in (2013)
Month to date precipitation 1.79 1.16  
Year to date precipitation 11.00 8.34  
Sea Level Pressure  
Sea Level Pressure 30.14 in    
Wind  
Wind Speed 7 mph (WSW)    
Max Wind Speed 14 mph    
Max Gust Speed 20 mph    
Visibility 10 miles    
Events      
T = Trace of Precipitation, MM = Missing Value Source: NWS Daily Summary

Daily Weather History Graph

Daily Weather History Graph

Search for Another Location

Airport:

Trip Planner

Search our weather history database for the weather conditions in past years. The results will help you decide how hot, cold, wet, or windy it might be!

Date:

Astronomy

Apr. 12, 2014 Rise Set
Actual Time 6:26 AM EDT 7:44 PM EDT
Civil Twilight 5:56 AM EDT 8:14 PM EDT
Nautical Twilight 5:20 AM EDT 8:50 PM EDT
Astronomical Twilight 4:42 AM EDT 9:28 PM EDT
Moon 5:16 PM EDT (4/12) 4:57 AM EDT (4/12)
Length of Visible Light 14h 18m
Length of Day
13h 18m
Waxing Gibbous, 93% of the Moon is Illuminated
Apr 12
Waxing Gibbous
Apr 15
Full
Apr 22
Last Quarter
Apr 29
New
May 6
First Quarter

Hourly Weather History & Observations

Time (EDT) Temp. Windchill Dew Point Humidity Pressure Visibility Wind Dir Wind Speed Gust Speed Precip Events Conditions
12:56 AM 30.9 °F 27.5 °F 26.1 °F 82% 30.05 in 10.0 mi East 3.5 mph - N/A   Clear
1:56 AM 30.9 °F - 26.1 °F 82% 30.05 in 10.0 mi Calm Calm - N/A   Scattered Clouds
2:56 AM 37.0 °F - 23.0 °F 57% 30.05 in 10.0 mi Calm Calm - N/A   Partly Cloudy
4:56 AM 41.0 °F 39.0 °F 30.0 °F 65% 30.07 in 10.0 mi South 3.5 mph - N/A   Scattered Clouds
5:56 AM 42.1 °F 40.2 °F 34.0 °F 73% 30.08 in 10.0 mi SSW 3.5 mph - N/A   Scattered Clouds
6:56 AM 37.0 °F 31.6 °F 32.0 °F 82% 30.12 in 10.0 mi West 6.9 mph - N/A   Partly Cloudy
7:56 AM 45.0 °F 40.6 °F 37.0 °F 74% 30.15 in 10.0 mi SSW 8.1 mph - N/A   Clear
8:56 AM 48.0 °F - 37.0 °F 66% 30.17 in 10.0 mi WSW 10.4 mph - N/A   Clear
9:56 AM 48.0 °F - 37.0 °F 66% 30.18 in 10.0 mi WSW 8.1 mph - N/A   Clear
10:56 AM 50.0 °F - 37.0 °F 61% 30.19 in 10.0 mi WSW 9.2 mph - N/A   Clear
11:56 AM 53.1 °F - 37.9 °F 57% 30.19 in 10.0 mi WSW 9.2 mph - N/A   Clear
12:56 PM 54.0 °F - 36.0 °F 51% 30.19 in 10.0 mi West 9.2 mph - N/A   Clear
1:56 PM 55.0 °F - 36.0 °F 49% 30.17 in 10.0 mi West 10.4 mph - N/A   Clear
2:56 PM 57.0 °F - 36.0 °F 45% 30.17 in 10.0 mi West 10.4 mph - N/A   Clear
3:56 PM 57.0 °F - 34.0 °F 42% 30.16 in 10.0 mi WSW 8.1 mph - N/A   Clear
4:56 PM 57.9 °F - 32.0 °F 37% 30.15 in 10.0 mi WSW 8.1 mph - N/A   Clear
5:56 PM 55.9 °F - 33.1 °F 42% 30.15 in 10.0 mi WNW 3.5 mph - N/A   Mostly Cloudy
6:56 PM 54.0 °F - 34.0 °F 47% 30.14 in 10.0 mi Calm Calm - N/A   Overcast
7:56 PM 53.1 °F - 34.0 °F 48% 30.14 in 10.0 mi NE 6.9 mph - N/A   Overcast
8:56 PM 51.1 °F - 34.0 °F 52% 30.15 in 10.0 mi East 5.8 mph - N/A   Overcast
9:56 PM 51.1 °F - 35.1 °F 54% 30.14 in 10.0 mi NE 10.4 mph - N/A   Overcast
10:56 PM 51.1 °F - 34.0 °F 52% 30.14 in 10.0 mi ENE 10.4 mph - N/A   Overcast
11:56 PM 50.0 °F - 33.1 °F 52% 30.13 in 10.0 mi ENE 8.1 mph - N/A   Overcast